CW0230 Weather Reports


Display with metric or nautical units.
time (UTC)temp
F
wind
direction
speed
MPH
gust
MPH
rain 1hr
in
rain 24hr
in
rain mn
in
humidity
%
barometer
mb
20260905145017 72 278 4.0 7.0 0.00 0.00 0.00 55 1024.9
20260905144017 72 269 1.0 8.0 0.00 0.00 0.00 55 1024.9
20260905141518 72 192 4.0 8.0 0.00 0.00 0.00 55 1025.1
20260905141018 72 228 1.0 7.0 0.00 0.00 0.00 55 1025.1
20260905135517 73 281 3.0 7.0 0.00 0.00 0.00 54 1025.3
20260905135017 73 317 4.0 7.0 0.00 0.00 0.00 55 1025.3
20260905134518 72 330 3.0 7.0 0.00 0.00 0.00 55 1025.3
20260905134017 73 212 4.0 7.0 0.00 0.00 0.00 54 1025.3
20260905133018 72 327 1.0 8.0 0.00 0.00 0.00 55 1025.3
20260905130517 72 320 2.0 7.0 0.00 0.00 0.00 56 1025.3
20260905123518 70 336 4.0 7.0 0.00 0.00 0.00 58 1025.2
20260905123018 70 327 4.0 7.0 0.00 0.00 0.00 59 1025.2
20260905120518 69 303 3.0 8.0 0.00 0.00 0.00 62 1025.3
20260905115018 69 319 3.0 6.0 0.00 0.00 0.00 62 1025.3
20260905114517 68 228 1.0 5.0 0.00 0.00 0.00 62 1025.3
20260905114017 68 314 2.0 6.0 0.00 0.00 0.00 65 1025.2
20260905113518 67 279 0.0 6.0 0.00 0.00 0.00 64 1025.2
20260905113017 67 289 2.0 6.0 0.00 0.00 0.00 66 1025.2
20260905111017 66 322 2.0 5.0 0.00 0.00 0.00 67 1025.3
20260905110018 66 257 2.0 6.0 0.00 0.00 0.00 69 1025.4
20260905104518 65 290 1.0 3.0 0.00 0.00 0.00 71 1025.4
20260905104017 64 240 1.0 6.0 0.00 0.00 0.00 72 1025.4
20260905101517 64 302 1.0 3.0 0.00 0.00 0.00 71 1025.5
20260905101018 64 322 1.0 3.0 0.00 0.00 0.00 71 1025.6
20260905100517 64 245 1.0 6.0 0.00 0.00 0.00 71 1025.5
20260905095018 64 280 2.0 5.0 0.00 0.00 0.00 70 1025.4
20260905094517 64 242 2.0 7.0 0.00 0.00 0.00 70 1025.2
20260905094018 64 220 2.0 7.0 0.00 0.00 0.00 70 1025.1
20260905093517 65 298 2.0 7.0 0.00 0.00 0.00 70 1025.1
20260905092518 65 220 2.0 6.0 0.00 0.00 0.00 69 1024.9
20260905092017 65 255 3.0 6.0 0.00 0.00 0.00 69 1024.9
20260905091017 65 225 2.0 5.0 0.00 0.00 0.00 70 1025.0
20260905090518 65 277 2.0 5.0 0.00 0.00 0.00 70 1025.0
20260905090018 64 350 2.0 3.0 0.00 0.00 0.00 71 1024.9
20260905085518 64 327 2.0 3.0 0.00 0.00 0.00 73 1024.9
20260905084517 62 208 1.0 3.0 0.00 0.00 0.00 74 1024.8
20260905084017 62 239 1.0 3.0 0.00 0.00 0.00 75 1024.8
20260905083018 62 222 1.0 3.0 0.00 0.00 0.00 76 1024.6
20260905082517 62 227 1.0 3.0 0.00 0.00 0.00 76 1024.6
20260905082017 61 325 1.0 3.0 0.00 0.00 0.00 78 1024.5
20260905081517 61 220 2.0 3.0 0.00 0.00 0.00 78 1024.5
20260905080518 61 213 2.0 3.0 0.00 0.00 0.00 79 1024.4
20260905075518 60 231 1.0 3.0 0.00 0.00 0.00 80 1024.3
20260905075018 60 302 0.0 3.0 0.00 0.00 0.00 80 1024.2
20260905074517 60 240 1.0 3.0 0.00 0.00 0.00 80 1024.2
20260905073017 59 257 2.0 5.0 0.00 0.00 0.00 82 1024.1
20260905072517 59 208 2.0 5.0 0.00 0.00 0.00 84 1024.1
20260905072018 58 229 3.0 5.0 0.00 0.00 0.00 85 1024.1
20260905071518 58 191 1.0 3.0 0.00 0.00 0.00 87 1024.1
20260905071018 58 220 0.0 2.0 0.00 0.00 0.00 88 1024.0
20260905070517 58 220 1.0 2.0 0.00 0.00 0.00 88 1023.9
20260905070018 57 220 0.0 2.0 0.00 0.00 0.00 88 1024.0
20260905065018 57 220 0.0 0.0 0.00 0.01 0.00 89 1023.8
20260905064517 57 220 0.0 0.0 0.00 0.01 0.00 89 1023.7
20260905063517 56 220 0.0 0.0 0.00 0.01 0.00 89 1023.5
20260905063017 56 220 0.0 0.0 0.00 0.02 0.00 89 1023.6
20260905062517 56 220 0.0 0.0 0.00 0.06 0.00 89 1023.5
20260905061518 56 220 0.0 1.0 0.00 0.06 0.00 89 1023.5
20260905060517 56 220 1.0 3.0 0.00 0.06 0.00 89 1023.4
20260905054018 56 209 1.0 2.0 0.00 0.06 0.00 90 1023.2
20260905052017 55 214 1.0 3.0 0.00 0.06 0.00 90 1023.1
20260905051517 55 214 1.0 3.0 0.00 0.06 0.00 90 1023.0
20260905051017 55 227 1.0 3.0 0.00 0.06 0.00 90 1023.0
20260905050517 55 217 1.0 3.0 0.00 0.06 0.00 91 1022.9
20260905050018 55 231 2.0 3.0 0.00 0.06 0.00 91 1022.8
20260905045017 55 202 2.0 3.0 0.00 0.06 0.00 91 1022.8
20260905044018 55 209 0.0 2.0 0.00 0.06 0.00 92 1022.6
20260905043017 55 92 0.0 0.0 0.00 0.06 0.00 91 1022.6
20260905042017 55 92 0.0 0.0 0.00 0.06 0.00 91 1022.5
20260905041517 55 92 0.0 0.0 0.00 0.06 0.00 91 1022.4
20260905040517 55 92 0.0 1.0 0.00 0.06 0.00 90 1022.3
20260905040017 55 92 0.0 1.0 0.00 0.06 0.00 89 1022.2
20260905034517 55 92 0.0 2.0 0.00 0.06 0.00 89 1022.0
20260905034018 55 100 0.0 1.0 0.00 0.06 0.00 89 1021.9
20260905033518 55 100 0.0 2.0 0.00 0.06 0.00 89 1021.8
20260905031518 56 201 1.0 3.0 0.00 0.06 0.00 89 1021.5
20260905031017 56 213 2.0 5.0 0.00 0.06 0.00 89 1021.6
20260905030517 56 213 2.0 5.0 0.00 0.06 0.00 89 1021.6
20260905030017 56 209 3.0 5.0 0.00 0.06 0.00 89 1021.4
20260905025517 56 210 2.0 6.0 0.00 0.06 0.00 89 1021.3
20260905025017 56 221 3.0 6.0 0.00 0.06 0.00 89 1021.4
20260905024017 56 202 2.0 5.0 0.00 0.06 0.00 89 1021.4
20260905023017 56 220 3.0 7.0 0.00 0.06 0.00 89 1021.3
20260905021017 55 200 3.0 6.0 0.00 0.06 0.00 90 1021.1
20260905015018 55 214 2.0 6.0 0.00 0.06 0.00 89 1021.2
20260905014517 55 201 3.0 6.0 0.00 0.06 0.00 89 1021.1
20260905014018 55 214 1.0 6.0 0.00 0.06 0.00 89 1021.1
20260905013517 55 215 2.0 6.0 0.00 0.06 0.00 89 1021.1
20260905013017 55 199 1.0 5.0 0.00 0.06 0.00 89 1021.1
20260905012518 55 216 2.0 6.0 0.00 0.06 0.00 89 1021.0
20260905011518 55 213 2.0 6.0 0.00 0.06 0.00 88 1021.0
20260905011017 55 217 3.0 6.0 0.00 0.06 0.00 88 1021.0
20260905010017 55 213 2.0 5.0 0.00 0.06 0.00 88 1021.0
20260905005517 56 225 2.0 5.0 0.00 0.06 0.00 88 1021.0
20260905005018 56 209 2.0 5.0 0.00 0.06 0.00 88 1021.1
20260905004517 56 230 2.0 5.0 0.00 0.06 0.00 88 1021.0
20260905004018 56 209 2.0 5.0 0.00 0.06 0.00 88 1021.0
20260905003017 56 227 2.0 5.0 0.00 0.06 0.00 88 1021.0
20260905002517 56 214 1.0 5.0 0.00 0.06 0.00 88 1021.1
20260905002018 56 220 2.0 6.0 0.00 0.06 0.00 88 1021.1
20260904235518 55 222 2.0 6.0 0.00 0.06 0.00 89 1020.9
20260904234517 55 215 2.0 3.0 0.00 0.06 0.00 88 1020.8
20260904233517 56 195 1.0 3.0 0.00 0.06 0.00 88 1020.8
20260904233018 56 190 1.0 3.0 0.00 0.06 0.00 88 1020.7
20260904232017 56 223 1.0 3.0 0.00 0.06 0.00 88 1020.7
20260904231018 56 216 1.0 3.0 0.00 0.06 0.00 87 1020.7
20260904225517 56 222 2.0 5.0 0.00 0.06 0.06 88 1020.6
20260904224517 56 220 2.0 5.0 0.00 0.06 0.06 88 1020.6
20260904224017 56 211 2.0 5.0 0.00 0.06 0.06 88 1020.6
20260904221018 56 210 1.0 3.0 0.00 0.06 0.06 87 1020.4
20260904220518 57 216 1.0 3.0 0.00 0.06 0.06 86 1020.3
20260904220017 57 214 1.0 3.0 0.00 0.06 0.06 85 1020.3
20260904214017 58 197 1.0 3.0 0.00 0.06 0.06 84 1020.3
20260904213517 58 204 1.0 3.0 0.00 0.06 0.06 84 1020.3
20260904211517 58 205 1.0 3.0 0.00 0.06 0.06 83 1020.1
20260904211017 59 205 2.0 5.0 0.00 0.06 0.06 83 1020.0
20260904210517 59 232 2.0 6.0 0.00 0.06 0.06 83 1020.0
20260904205517 59 205 1.0 5.0 0.00 0.06 0.06 82 1019.9
20260904204017 59 214 2.0 5.0 0.00 0.06 0.06 81 1019.7
20260904203517 60 207 2.0 5.0 0.00 0.06 0.06 80 1019.7
20260904203017 60 228 1.0 5.0 0.00 0.06 0.06 80 1019.7
20260904201017 60 246 1.0 5.0 0.00 0.06 0.06 79 1019.5
20260904200517 61 196 2.0 6.0 0.00 0.06 0.06 78 1019.5
20260904194517 61 230 2.0 6.0 0.00 0.06 0.06 79 1019.4
20260904194018 61 239 2.0 5.0 0.00 0.06 0.06 79 1019.4
20260904193517 61 236 3.0 6.0 0.00 0.06 0.06 78 1019.3
20260904192018 62 222 2.0 6.0 0.00 0.06 0.06 77 1019.2
20260904190517 62 217 3.0 6.0 0.00 0.06 0.06 76 1019.0
20260904185017 63 272 1.0 9.0 0.00 0.06 0.06 75 1018.9
20260904184017 63 253 1.0 12.0 0.00 0.06 0.06 74 1018.8
20260904183517 63 230 3.0 12.0 0.00 0.06 0.06 73 1018.8
20260904183017 64 238 5.0 12.0 0.00 0.06 0.06 73 1018.7
20260904182517 64 215 3.0 9.0 0.00 0.06 0.06 72 1018.6
20260904182017 64 282 3.0 10.0 0.00 0.06 0.06 72 1018.6
20260904181517 64 206 3.0 12.0 0.00 0.06 0.06 72 1018.6
20260904180018 64 237 6.0 10.0 0.00 0.06 0.06 70 1018.4
20260904175518 64 231 5.0 10.0 0.00 0.06 0.06 70 1018.4
20260904174517 64 226 6.0 12.0 0.00 0.06 0.06 69 1018.3
20260904174018 64 217 5.0 12.0 0.00 0.06 0.06 70 1018.1
20260904173517 64 196 4.0 8.0 0.00 0.06 0.06 69 1018.0
20260904173017 64 221 5.0 10.0 0.00 0.06 0.06 69 1018.3
20260904172017 65 227 5.0 10.0 0.00 0.06 0.06 67 1018.3
20260904171517 65 234 4.0 10.0 0.00 0.06 0.06 67 1018.3
20260904170018 65 258 5.0 10.0 0.00 0.06 0.06 64 1018.0
20260904165517 65 240 5.0 15.0 0.00 0.06 0.06 65 1017.9
20260904165017 65 239 6.0 15.0 0.00 0.06 0.06 65 1017.9
20260904164017 66 236 4.0 12.0 0.00 0.06 0.06 65 1017.9
20260904163018 66 233 5.0 12.0 0.00 0.06 0.06 66 1017.7
20260904162517 66 232 3.0 9.0 0.00 0.06 0.06 66 1017.8
20260904162017 66 239 2.0 8.0 0.00 0.06 0.06 66 1017.9
20260904160517 66 245 5.0 14.0 0.00 0.06 0.06 65 1017.8
20260904160018 66 233 5.0 12.0 0.00 0.06 0.06 65 1017.9
20260904155017 66 248 3.0 12.0 0.00 0.06 0.06 64 1017.7
20260904154018 66 231 5.0 12.0 0.00 0.06 0.06 63 1017.7
20260904152517 67 253 5.0 14.0 0.00 0.06 0.06 62 1017.6
20260904152018 67 238 3.0 12.0 0.00 0.06 0.06 62 1017.6
20260904151017 67 217 5.0 9.0 0.00 0.06 0.06 62 1017.5
20260904145517 68 244 3.0 12.0 0.00 0.06 0.06 62 1017.5